EW0322 Weather Reports


Display with metric or nautical units.
time (UTC)temp
F
wind
direction
speed
MPH
gust
MPH
rain 1hr
in
rain 24hr
in
rain mn
in
humidity
%
barometer
mb
20260902053024 85 240 0.0 3.0 0.00 0.00 0.00 31 1006.3
20260902051523 85 240 0.0 2.0 0.00 0.00 0.00 31 1006.3
20260902050023 85 240 0.0 1.0 0.00 0.00 0.00 31 1006.4
20260902044522 85 240 0.0 0.0 0.00 0.00 0.00 31 1006.5
20260902043021 86 240 0.0 0.0 0.00 0.00 0.00 30 1006.3
20260902041522 86 240 0.0 3.0 0.00 0.00 0.00 30 1006.3
20260902040021 86 240 0.0 2.0 0.00 0.00 0.00 30 1006.2
20260902034522 87 240 0.0 0.0 0.00 0.00 0.00 30 1006.1
20260902033020 87 240 0.0 1.0 0.00 0.00 0.00 29 1005.9
20260902031520 87 240 0.0 0.0 0.00 0.00 0.00 29 1005.7
20260902030019 88 240 0.0 0.0 0.00 0.00 0.00 29 1005.4
20260902024522 88 240 0.0 0.0 0.00 0.00 0.00 28 1005.1
20260902023017 89 240 0.0 5.0 0.00 0.00 0.00 28 1004.8
20260902021517 89 240 0.0 3.0 0.00 0.00 0.00 28 1004.6
20260902020021 89 240 3.0 7.0 0.00 0.00 0.00 28 1004.4
20260902014517 90 240 0.0 1.0 0.00 0.00 0.00 27 1004.2
20260902013015 91 240 0.0 2.0 0.00 0.00 0.00 27 1004.0
20260902011515 91 240 0.0 5.0 0.00 0.00 0.00 27 1003.9
20260902010018 91 240 0.0 3.0 0.00 0.00 0.00 27 1003.9
20260902004513 92 240 1.0 7.0 0.00 0.00 0.00 26 1003.8
20260902003013 92 240 3.0 9.0 0.00 0.00 0.00 27 1003.7
20260902001515 93 238 2.0 8.0 0.00 0.00 0.00 25 1003.8
20260902000014 93 240 1.0 5.0 0.00 0.00 0.00 25 1003.9
20260901234511 94 239 1.0 8.0 0.00 0.00 0.00 24 1003.9
20260901233015 95 242 2.0 5.0 0.00 0.00 0.00 23 1003.9
20260901231511 95 233 3.0 7.0 0.00 0.00 0.00 24 1003.9
20260901230010 94 227 2.0 8.0 0.00 0.00 0.00 25 1003.7
20260901224508 94 226 3.0 7.0 0.00 0.00 0.00 25 1003.9
20260901223007 94 240 2.0 9.0 0.00 0.00 0.00 25 1004.1
20260901221506 94 232 2.0 10.0 0.00 0.00 0.00 24 1004.2
20260901220003 94 226 0.0 7.0 0.00 0.00 0.00 24 1004.2
20260901214502 93 223 1.0 7.0 0.00 0.00 0.00 25 1004.6
20260901213115 94 232 1.0 5.0 0.00 0.00 0.00 24 1004.8
20260901211559 93 236 1.0 9.0 0.00 0.00 0.00 24 1004.9
20260901210058 93 233 2.0 11.0 0.00 0.00 0.00 24 1005.5
20260901204556 93 206 4.0 8.0 0.00 0.00 0.00 24 1005.6
20260901203053 92 231 0.0 4.0 0.00 0.00 0.00 26 1005.9
20260901201552 92 234 4.0 8.0 0.00 0.00 0.00 26 1006.1
20260901200050 92 236 4.0 8.0 0.00 0.00 0.00 26 1006.3
20260901194549 91 221 1.0 4.0 0.00 0.00 0.00 27 1006.4
20260901193049 91 223 3.0 6.0 0.00 0.00 0.00 27 1006.7
20260901191548 90 214 1.0 7.0 0.00 0.00 0.00 27 1006.9
20260901190055 92 220 0.0 6.0 0.00 0.00 0.00 27 1007.1
20260901184548 89 219 3.0 7.0 0.00 0.00 0.00 29 1007.3
20260901183014 89 221 0.0 4.0 0.00 0.00 0.00 30 1007.5
20260901181511 87 221 1.0 8.0 0.00 0.00 0.00 31 1007.5
20260901180011 87 221 3.0 7.0 0.00 0.00 0.00 32 1007.6
20260901174508 87 221 0.0 5.0 0.00 0.00 0.00 33 1007.8
20260901173007 88 221 0.0 4.0 0.00 0.00 0.00 32 1007.9
20260901171507 85 221 0.0 5.0 0.00 0.00 0.00 34 1007.9
20260901170107 84 221 0.0 2.0 0.00 0.00 0.00 36 1008.0
20260901164557 82 221 0.0 2.0 0.00 0.00 0.00 38 1008.0
20260901163054 82 221 1.0 4.0 0.00 0.00 0.00 39 1007.9
20260901161550 81 221 0.0 4.0 0.00 0.00 0.00 40 1007.7
20260901160047 80 221 0.0 2.0 0.00 0.00 0.00 41 1007.6
20260901154545 80 221 0.0 2.0 0.00 0.00 0.00 43 1007.5
20260901153051 79 221 0.0 0.0 0.00 0.00 0.00 44 1007.4
20260901151543 78 221 0.0 1.0 0.00 0.00 0.00 45 1007.5
20260901150041 78 221 0.0 1.0 0.00 0.00 0.00 46 1007.3
20260901144540 77 219 0.0 5.0 0.00 0.00 0.00 47 1007.3
20260901143039 77 219 0.0 4.0 0.00 0.00 0.00 48 1007.3
20260901141539 76 220 1.0 4.0 0.00 0.00 0.00 48 1007.3
20260901140037 76 220 1.0 6.0 0.00 0.00 0.00 48 1007.2
20260901134534 76 220 2.0 4.0 0.00 0.00 0.00 48 1007.1
20260901133031 75 220 2.0 5.0 0.00 0.00 0.00 50 1006.9
20260901131526 75 219 1.0 5.0 0.00 0.00 0.00 50 1006.7
20260901130022 74 209 2.0 7.0 0.00 0.00 0.00 50 1006.5
20260901124520 75 202 3.0 7.0 0.00 0.00 0.00 49 1006.5
20260901123017 75 202 2.0 7.0 0.00 0.00 0.00 47 1006.4
20260901121518 75 202 0.0 4.0 0.00 0.00 0.00 46 1006.2
20260901120016 75 202 1.0 3.0 0.00 0.00 0.00 47 1006.0
20260901114518 76 202 0.0 5.0 0.00 0.00 0.00 46 1005.9
20260901113011 76 202 0.0 1.0 0.00 0.00 0.00 47 1005.8
20260901111511 77 202 0.0 0.0 0.00 0.00 0.00 47 1005.4
20260901110010 77 202 0.0 0.0 0.00 0.00 0.00 46 1005.2
20260901104509 77 202 0.0 3.0 0.00 0.00 0.00 45 1005.2
20260901103008 77 202 0.0 2.0 0.00 0.00 0.00 45 1005.3
20260901101507 77 202 0.0 1.0 0.00 0.00 0.00 45 1005.3
20260901100008 77 202 0.0 1.0 0.00 0.00 0.00 45 1005.4
20260901094507 77 202 0.0 0.0 0.00 0.00 0.00 45 1005.5
20260901093005 77 202 0.0 6.0 0.00 0.00 0.00 44 1005.4
20260901091504 77 202 2.0 5.0 0.00 0.00 0.00 44 1005.5
20260901090006 77 202 4.0 7.0 0.00 0.00 0.00 44 1005.7
20260901084503 78 202 2.0 7.0 0.00 0.00 0.00 44 1005.8
20260901083002 77 202 1.0 8.0 0.00 0.00 0.00 46 1005.6
20260901081501 78 200 2.0 4.0 0.00 0.00 0.00 48 1005.6
20260901080104 77 200 0.0 3.0 0.00 0.00 0.00 49 1005.6
20260901080003 77 200 0.0 3.0 0.00 0.00 0.00 49 1005.6
20260901074609 77 199 2.0 4.0 0.00 0.00 0.00 50 1005.8
20260901073059 76 200 0.0 5.0 0.00 0.00 0.00 51 1006.0
20260901071531 76 199 2.0 7.0 0.00 0.00 0.00 52 1006.3
20260901070035 76 200 4.0 10.0 0.00 0.00 0.00 52 1006.3
20260901064530 77 190 4.0 8.0 0.00 0.00 0.00 50 1006.4
20260901063030 78 188 4.0 8.0 0.00 0.00 0.00 46 1006.2
20260901061520 80 206 4.0 10.0 0.00 0.00 0.00 42 1006.3
20260901060016 81 319 2.0 5.0 0.00 0.00 0.00 39 1005.9
20260901054529 81 319 2.0 9.0 0.00 0.00 0.00 39 1005.2